Butler, GA

12:08 PM EST on December 11, 2019 (GMT -0500)
Butler

Weather History for K6A1 - October, 2019

Change the Weather History Date:

Monday, October 7, 2019

  Actual Average (KMCN) Record (KMCN)
Temperature  
Mean Temperature 76 °F -  
Max Temperature 86 °F 80 °F 95 °F (1951)
Min Temperature 65 °F 56 °F 40 °F (1932)
Cooling Degree Days 10    
Growing Degree Days 26 (Base 50)    
Moisture  
Dew Point 63 °F    
Average Humidity 67    
Maximum Humidity 96    
Minimum Humidity 40    
Precipitation  
Precipitation 0.00 in - - ()
Sea Level Pressure  
Sea Level Pressure 30.06 in    
Wind  
Wind Speed 4 mph ()    
Max Wind Speed 9 mph    
Max Gust Speed -    
Visibility 9.9 miles    
Events      
Averages and records for this station are not official NWS values.
T = Trace of Precipitation, MM = Missing Value Source: Averaged Metar Reports

Daily Weather History Graph

Daily Weather History Graph

Search for Another Location

Airport or City:

Astronomy

Oct. 07, 2019 Rise Set
Actual Time 7:35 AM EDT 7:14 PM EDT
Civil Twilight 7:10 AM EDT 7:38 PM EDT
Nautical Twilight 6:41 AM EDT 8:07 PM EDT
Astronomical Twilight 6:13 AM EDT 8:35 PM EDT
Moon 4:12 PM EDT (10/7) 1:50 AM EDT (10/7)
Length of Visible Light 12h 28m
Length of Day
11h 39m
Waxing Gibbous, 69% of the Moon is Illuminated
Oct 7
Waxing Gibbous
Oct 13
Full
Oct 21
Last Quarter
Oct 27
New
Nov 4
First Quarter

Hourly Weather History & Observations

Time (EDT) Temp. Heat Index Dew Point Humidity Pressure Visibility Wind Dir Wind Speed Gust Speed Precip Events Conditions
12:15 AM 73.0 °F - 64.8 °F 75% 30.14 in 10.0 mi ESE 4.6 mph - N/A   Unknown
12:35 AM 72.7 °F - 64.9 °F 77% 30.13 in 10.0 mi ESE 5.8 mph - N/A   Unknown
12:55 AM 72.0 °F - 64.9 °F 78% 30.13 in 10.0 mi ESE 3.5 mph - N/A   Unknown
1:15 AM 71.6 °F - 65.3 °F 80% 30.12 in 10.0 mi ESE 5.8 mph - N/A   Unknown
1:35 AM 71.2 °F - 64.8 °F 80% 30.12 in 10.0 mi ESE 4.6 mph - N/A   Unknown
1:55 AM 70.9 °F - 64.8 °F 81% 30.12 in 10.0 mi East 4.6 mph - N/A   Unknown
2:15 AM 70.3 °F - 64.9 °F 83% 30.12 in 10.0 mi East 4.6 mph - N/A   Unknown
2:35 AM 70.2 °F - 64.8 °F 83% 30.12 in 10.0 mi East 4.6 mph - N/A   Unknown
2:55 AM 70.2 °F - 64.6 °F 82% 30.11 in 10.0 mi Calm Calm - N/A   Unknown
3:15 AM 69.8 °F - 64.6 °F 83% 30.11 in 10.0 mi ENE 3.5 mph - N/A   Unknown
3:35 AM 69.4 °F - 64.6 °F 84% 30.10 in 10.0 mi Calm Calm - N/A   Unknown
4:15 AM 68.2 °F - 64.4 °F 88% 30.10 in 10.0 mi NNE 4.6 mph - N/A   Unknown
4:35 AM 68.2 °F - 64.6 °F 88% 30.10 in 10.0 mi NE 4.6 mph - N/A   Unknown
4:55 AM 68.2 °F - 64.4 °F 88% 30.10 in 10.0 mi NE 3.5 mph - N/A   Unknown
5:15 AM 68.0 °F - 64.4 °F 88% 30.10 in 10.0 mi ENE 3.5 mph - N/A   Unknown
5:35 AM 67.6 °F - 64.0 °F 88% 30.10 in 10.0 mi ENE 3.5 mph - N/A   Unknown
5:55 AM 67.3 °F - 64.4 °F 90% 30.10 in 10.0 mi ENE 3.5 mph - N/A   Unknown
6:15 AM 67.1 °F - 64.4 °F 91% 30.10 in 10.0 mi ENE 3.5 mph - N/A   Unknown
6:35 AM 66.7 °F - 64.0 °F 91% 30.10 in 10.0 mi Calm Calm - N/A   Unknown
6:55 AM 66.2 °F - 64.6 °F 94% 30.10 in 10.0 mi Calm Calm - N/A   Unknown
7:15 AM 66.2 °F - 64.6 °F 94% 30.09 in 10.0 mi ENE 3.5 mph - N/A   Unknown
7:35 AM 65.3 °F - 63.9 °F 95% 30.10 in 7.0 mi NE 3.5 mph - N/A   Unknown
7:55 AM 65.7 °F - 64.6 °F 96% 30.10 in 7.0 mi Calm Calm - N/A   Unknown
8:15 AM 66.2 °F - 64.8 °F 95% 30.10 in 7.0 mi Calm Calm - N/A   Unknown
8:35 AM 67.6 °F - 64.6 °F 90% 30.10 in 10.0 mi ENE 5.8 mph - N/A   Unknown
8:55 AM 68.9 °F - 64.0 °F 84% 30.10 in 10.0 mi ENE 6.9 mph - N/A   Unknown
9:15 AM 71.1 °F - 63.7 °F 77% 30.10 in 10.0 mi East 6.9 mph - N/A   Unknown
9:35 AM 73.2 °F - 63.9 °F 72% 30.10 in 10.0 mi ENE 9.2 mph - N/A   Unknown
9:55 AM 73.4 °F - 63.9 °F 72% 30.11 in 10.0 mi East 5.8 mph - N/A   Unknown
10:15 AM 74.3 °F - 63.9 °F 70% 30.10 in 10.0 mi East 5.8 mph - N/A   Unknown
10:35 AM 75.6 °F - 64.2 °F 68% 30.11 in 10.0 mi NE 5.8 mph - N/A   Unknown
10:55 AM 76.8 °F - 64.4 °F 65% 30.11 in 10.0 mi NE 6.9 mph - N/A   Unknown
11:15 AM 78.4 °F - 64.4 °F 62% 30.10 in 10.0 mi ESE 4.6 mph - N/A   Unknown
11:35 AM 79.9 °F - 64.2 °F 59% 30.10 in 10.0 mi NNE 3.5 mph - N/A   Unknown
11:55 AM 79.3 °F - 63.9 °F 59% 30.10 in 10.0 mi SE 3.5 mph - N/A   Unknown
12:15 PM 81.0 °F 82.2 °F 63.0 °F 54% 30.09 in 10.0 mi NE 5.8 mph - N/A   Unknown
12:35 PM 82.8 °F 83.4 °F 61.5 °F 49% 30.08 in 10.0 mi SSE 5.8 mph - N/A   Unknown
12:55 PM 82.8 °F 83.3 °F 61.3 °F 48% 30.08 in 10.0 mi NNE 4.6 mph - N/A   Unknown
1:15 PM 82.8 °F 83.3 °F 61.0 °F 48% 30.07 in 10.0 mi ENE 5.8 mph - N/A   Unknown
1:35 PM 83.3 °F 83.5 °F 60.8 °F 46% 30.06 in 10.0 mi East 5.8 mph - N/A   Unknown
1:55 PM 84.6 °F 84.8 °F 61.0 °F 45% 30.05 in 10.0 mi ESE 4.6 mph - N/A   Unknown
2:15 PM 85.5 °F 85.4 °F 60.8 °F 43% 30.04 in 10.0 mi ENE 5.8 mph - N/A   Unknown
2:35 PM 84.7 °F 84.8 °F 60.6 °F 44% 30.02 in 10.0 mi NE 3.5 mph - N/A   Unknown
2:55 PM 86.5 °F 86.1 °F 59.9 °F 40% 30.01 in 10.0 mi SE 4.6 mph - N/A   Unknown
3:15 PM 86.4 °F 86.1 °F 59.9 °F 41% 30.01 in 10.0 mi NNE 5.8 mph - N/A   Unknown
3:35 PM 86.5 °F 86.1 °F 59.9 °F 40% 30.00 in 10.0 mi ENE 6.9 mph - N/A   Unknown
3:55 PM 83.7 °F 83.9 °F 61.2 °F 46% 30.00 in 10.0 mi NE 5.8 mph - N/A   Light Drizzle
4:15 PM 84.2 °F 84.2 °F 60.3 °F 44% 30.00 in 10.0 mi East 5.8 mph - N/A   Unknown
4:35 PM 84.4 °F 84.2 °F 59.9 °F 43% 29.99 in 10.0 mi North 6.9 mph - N/A   Unknown
4:55 PM 85.1 °F 85.0 °F 60.3 °F 43% 29.99 in 10.0 mi East 6.9 mph - N/A   Unknown
5:15 PM 84.9 °F 84.8 °F 60.3 °F 43% 29.99 in 10.0 mi East 6.9 mph - N/A   Unknown
5:35 PM 83.7 °F 83.8 °F 60.4 °F 45% 29.99 in 10.0 mi NE 5.8 mph - N/A   Unknown
5:55 PM 82.9 °F 83.2 °F 60.3 °F 46% 29.98 in 10.0 mi NE 4.6 mph - N/A   Unknown
6:35 PM 83.5 °F 83.4 °F 59.7 °F 44% 29.98 in 10.0 mi ENE 6.9 mph - N/A   Unknown
6:55 PM 82.4 °F 82.6 °F 59.9 °F 46% 29.98 in 10.0 mi NE 6.9 mph - N/A   Unknown
7:15 PM 81.3 °F 81.9 °F 60.3 °F 49% 29.99 in 10.0 mi NE 6.9 mph - N/A   Unknown
7:35 PM 80.4 °F 81.2 °F 60.4 °F 50% 29.99 in 10.0 mi NNE 4.6 mph - N/A   Unknown
7:55 PM 79.7 °F - 60.8 °F 52% 30.00 in 10.0 mi NE 4.6 mph - N/A   Unknown
8:15 PM 78.6 °F - 60.8 °F 54% 30.00 in 10.0 mi NE 3.5 mph - N/A   Unknown
8:35 PM 76.6 °F - 60.8 °F 58% 30.01 in 10.0 mi Calm Calm - N/A   Unknown
8:55 PM 76.1 °F - 61.3 °F 60% 30.02 in 10.0 mi Calm Calm - N/A   Unknown
9:15 PM 75.4 °F - 61.0 °F 61% 30.02 in 10.0 mi Calm Calm - N/A   Unknown
9:35 PM 72.9 °F - 61.0 °F 66% 30.02 in 10.0 mi Calm Calm - N/A   Unknown
9:55 PM 72.0 °F - 61.0 °F 68% 30.02 in 10.0 mi Calm Calm - N/A   Unknown
10:15 PM 72.9 °F - 60.6 °F 65% 30.02 in 10.0 mi Calm Calm - N/A   Unknown
10:35 PM 71.8 °F - 60.4 °F 67% 30.02 in 10.0 mi Calm Calm - N/A   Unknown
10:55 PM 72.3 °F - 61.2 °F 68% 30.02 in 10.0 mi NNE 3.5 mph - N/A   Unknown
11:35 PM 70.7 °F - 61.0 °F 71% 30.02 in 10.0 mi Calm Calm - N/A   Unknown
11:55 PM 70.3 °F - 61.3 °F 73% 30.02 in 10.0 mi North 3.5 mph - N/A   Unknown